Weather History for Jordan, MT

Change the Weather History Date:

Tuesday, August 13, 2013

  Actual Average Record
Temperature  
Mean Temperature 72 °F 70 °F  
Max Temperature 87 °F 87 °F 102 °F (1937)
Min Temperature 57 °F 54 °F 38 °F (1908)
Degree Days  
Heating Degree Days 0 1  
Month to date heating degree days 7 10  
Since 1 June heating degree days 108 160  
Since 1 July heating degree days 13 35  
Cooling Degree Days 7 6  
Month to date cooling degree days 38 87  
Year to date cooling degree days 287 318  
Since 1 June cooling degree days 275 312  
Growing Degree Days 22 (Base 50)    
Moisture  
Dew Point 55 °F    
Average Humidity 60    
Maximum Humidity 90    
Minimum Humidity 30    
Precipitation  
Precipitation 0.00 in 0.04 in 0.58 in (1946)
Month to date precipitation 0.81 0.59  
Year to date precipitation 13.67 9.32  
Snow  
Snow 0.00 in - - ()
Month to date snowfall 0.0  
Since 1 June snowfall 0.0  
Since 1 July snowfall 0.0  
Snow Depth 0.00 in    
Sea Level Pressure  
Sea Level Pressure 30.05 in    
Wind  
Wind Speed 4 mph (ENE)    
Max Wind Speed 15 mph    
Max Gust Speed 18 mph    
T = Trace of Precipitation, MM = Missing Value Source: NWS Daily Summary

Daily Weather History Graph

Daily Weather History Graph

Search for Another Location

Airport:

Trip Planner

Search our weather history database for the weather conditions in past years. The results will help you decide how hot, cold, wet, or windy it might be!

Date:

Astronomy

Aug. 13, 2013 Rise Set
Actual Time 6:02 AM MDT 8:22 PM MDT
Civil Twilight 5:28 AM MDT 8:55 PM MDT
Nautical Twilight 4:45 AM MDT 9:38 PM MDT
Astronomical Twilight 3:57 AM MDT 10:25 PM MDT
Moon 1:32 PM MDT (8/13) 11:25 PM MDT (8/13)
Length of Visible Light 15h 27m
Length of Day
14h 20m
Waxing Crescent, 42% of the Moon is Illuminated
Aug 13
Waxing Crescent
Aug 14
First Quarter
Aug 20
Full
Aug 28
Last Quarter
Sep 5
New

Hourly Weather History & Observations

Time (MDT) Temp. Heat Index Dew Point Humidity Pressure Visibility Wind Dir Wind Speed Gust Speed Precip Events Conditions
12:48 AM 68.0 °F - 55.9 °F 65% 30.06 in - East 3.5 mph - N/A   Unknown
1:48 AM 66.0 °F - 57.0 °F 73% 30.05 in - East 5.8 mph - N/A   Unknown
2:48 AM 64.9 °F - 55.0 °F 70% 30.05 in - ENE 6.9 mph - N/A   Unknown
3:48 AM 64.0 °F - 55.9 °F 75% 30.10 in - Calm Calm - N/A   Unknown
4:48 AM 63.0 °F - 57.0 °F 81% 30.07 in - Calm Calm - N/A   Unknown
5:48 AM 62.1 °F - 57.9 °F 86% 30.06 in - ENE 4.6 mph - N/A   Unknown
6:48 AM 59.0 °F - 55.9 °F 90% 30.07 in - Calm Calm - N/A   Unknown
7:48 AM 63.0 °F - 59.0 °F 87% 30.06 in - Calm Calm - N/A   Unknown
8:48 AM 68.0 °F - 57.0 °F 68% 30.08 in - West 4.6 mph - N/A   Unknown
9:48 AM 72.0 °F - 57.9 °F 61% 30.09 in - NW 5.8 mph - N/A   Unknown
10:48 AM 75.9 °F - 54.0 °F 46% 30.09 in - Calm Calm - N/A   Unknown
11:48 AM 79.0 °F - 53.1 °F 40% 30.08 in - Calm Calm - N/A   Unknown
12:48 PM 81.0 °F 80.4 °F 53.1 °F 38% 30.07 in - Calm Calm - N/A   Unknown
1:48 PM 82.9 °F 81.8 °F 53.1 °F 36% 30.05 in - Calm Calm - N/A   Unknown
2:48 PM 84.0 °F - 52.0 °F 33% 30.04 in - Calm Calm - N/A   Unknown
3:48 PM 86.0 °F - 51.1 °F 30% 30.03 in - North 3.5 mph - N/A   Unknown
4:48 PM 84.9 °F - 52.0 °F 32% 30.01 in - SE 3.5 mph - N/A   Unknown
5:48 PM 86.0 °F 84.0 °F 53.1 °F 32% 29.99 in - NE 6.9 mph - N/A   Unknown
6:48 PM 84.0 °F 82.6 °F 54.0 °F 35% 30.00 in - NE 9.2 mph - N/A   Unknown
7:48 PM 78.1 °F - 53.1 °F 42% 30.02 in - NE 6.9 mph - N/A   Unknown
8:48 PM 75.0 °F - 57.9 °F 55% 30.03 in - ENE 12.7 mph - N/A   Unknown
9:48 PM 71.1 °F - 59.0 °F 66% 30.04 in - East 6.9 mph - N/A   Unknown
10:48 PM 69.1 °F - 59.0 °F 70% 30.03 in - ENE 5.8 mph - N/A   Unknown
11:48 PM 68.0 °F - 59.0 °F 73% 30.03 in - East 4.6 mph - N/A   Unknown